Location: Petrozavodsk
(61.7857°N, 34.3593°E)
Time: 08:13:46
(UTC+03:00)

Terra - Pass Details

Date: 22 October 2019
Orbit: 701 x 703 km, 98.2° (Epoch: 11 November)

Event Time Altitude Azimuth Distance (km) Brightness Sun altitude
Exits shadow 22:58:02 22° 324° (NW) 1,519 4.1 -36.9°
Drops below altitude 10° 22:59:52 10° 335° (NNW) 2,185 5.1 -37.0°
Sets 23:02:14 0° 341° (NNW) 3,108 6.1 -37.1°
